Location: Peebles
(55.6412°N, 3.1714°W)
Time: 06:22:57
(UTC+01:00)

deb Agena D - Pass Details

Date: 12 July 2022
Orbit: 797 x 980 km, 99.8° (Epoch: 16 August)

Event Time Altitude Azimuth Distance (km) Brightness Sun altitude
Rises 00:00:52 0° 16° (NNE) 3,429 10.4 -10.6°
Reaches altitude 10° 00:03:19 10° 9° (N) 2,515 9.8 -10.7°
Maximum altitude 00:08:28 39° 302° (WNW) 1,307 7.7 -10.9°
Drops below altitude 10° 00:13:49 10° 235° (SW) 2,615 8.6 -11.2°
Sets 00:16:24 0° 229° (SW) 3,581 9.2 -11.2°
